When you browse on this site, cookies collect data to enhance your experience and personalize the content and advertising you see.
Visit our Privacy Policy to learn more. By continuing to use the site, you agree to this use of cookies and data.
  • In Hungary
  • List of Countries
  • For 7 days
  • Water Temperature
  • Weather Map
  • News
  • Weather Widgets
  • user-avatar
    Login

    Hourly Weather Syhnal'ne

    Today, 28 May, Thursday

    Time Temperature Precipitation Wind Pressure Humidity
    00:00 +15°C° 1.5 mm 5 mps 744 mmHg 89%
    01:00 +14°C° 0.6 mm 5 mps 744 mmHg 87%
    02:00 +14°C° 0.6 mm 5 mps 743 mmHg 86%
    03:00 +13°C° 0.6 mm 5 mps 743 mmHg 85%
    04:00 +14°C° 0 mm 5 mps 743 mmHg 84%
    05:00 +14°C° 0 mm 6 mps 742 mmHg 83%
    06:00 +14°C° 0 mm 6 mps 742 mmHg 82%
    07:00 +15°C° 0.1 mm 7 mps 742 mmHg 78%
    08:00 +17°C° 0.1 mm 8 mps 742 mmHg 74%
    09:00 +18°C° 0.1 mm 9 mps 742 mmHg 70%
    10:00 +19°C° 0.1 mm 9 mps 742 mmHg 67%
    11:00 +22°C° 0.1 mm 9 mps 741 mmHg 65%
    12:00 +23°C° 0.1 mm 9 mps 741 mmHg 62%
    13:00 +23°C° 0 mm 9 mps 741 mmHg 61%
    14:00 +24°C° 0 mm 8 mps 741 mmHg 60%
    15:00 +24°C° 0 mm 8 mps 741 mmHg 60%
    16:00 +24°C° 0 mm 7 mps 740 mmHg 62%
    17:00 +24°C° 0 mm 6 mps 740 mmHg 64%
    18:00 +25°C° 0 mm 5 mps 740 mmHg 66%
    19:00 +23°C° 0.1 mm 4 mps 740 mmHg 71%
    20:00 +21°C° 0.1 mm 3 mps 740 mmHg 76%
    21:00 +20°C° 0.1 mm 3 mps 740 mmHg 82%
    22:00 +19°C° 0.8 mm 3 mps 740 mmHg 84%
    23:00 +18°C° 0.8 mm 2 mps 741 mmHg 86%

    Tomorrow, 29 May, Friday

    Time Temperature Precipitation Wind Pressure Humidity
    00:00 +18°C° 0.8 mm 2 mps 741 mmHg 89%
    01:00 +17°C° 0.4 mm 2 mps 741 mmHg 89%
    02:00 +17°C° 0.4 mm 3 mps 740 mmHg 89%
    03:00 +16°C° 0.4 mm 3 mps 740 mmHg 90%
    04:00 +16°C° 0.2 mm 3 mps 740 mmHg 90%
    05:00 +16°C° 0.2 mm 3 mps 740 mmHg 91%
    06:00 +16°C° 0.2 mm 3 mps 740 mmHg 91%
    07:00 +17°C° 0.5 mm 3 mps 740 mmHg 90%
    08:00 +17°C° 0.5 mm 3 mps 740 mmHg 88%
    09:00 +18°C° 0.5 mm 3 mps 740 mmHg 87%
    10:00 +19°C° 0.1 mm 3 mps 740 mmHg 82%
    11:00 +20°C° 0.1 mm 3 mps 739 mmHg 77%
    12:00 +22°C° 0.1 mm 3 mps 739 mmHg 72%
    13:00 +24°C° 0 mm 3 mps 739 mmHg 68%
    14:00 +24°C° 0 mm 3 mps 738 mmHg 63%
    15:00 +25°C° 0 mm 3 mps 738 mmHg 58%
    16:00 +25°C° 0 mm 3 mps 738 mmHg 61%
    17:00 +25°C° 0 mm 3 mps 738 mmHg 63%
    18:00 +25°C° 0 mm 2 mps 737 mmHg 66%
    19:00 +23°C° 0.2 mm 2 mps 737 mmHg 73%
    20:00 +20°C° 0.2 mm 3 mps 737 mmHg 80%
    21:00 +19°C° 0.2 mm 3 mps 737 mmHg 87%
    22:00 +18°C° 0.5 mm 3 mps 737 mmHg 88%
    23:00 +18°C° 0.5 mm 3 mps 737 mmHg 90%

    Day after tomorrow, 30 May, Saturday

    Time Temperature Precipitation Wind Pressure Humidity
    00:00 +17°C° 0.5 mm 3 mps 736 mmHg 91%
    01:00 +16°C° 1.5 mm 3 mps 736 mmHg 92%
    02:00 +15°C° 1.5 mm 4 mps 736 mmHg 93%
    03:00 +14°C° 1.5 mm 4 mps 736 mmHg 93%
    04:00 +14°C° 5.2 mm 4 mps 736 mmHg 93%
    05:00 +14°C° 5.2 mm 5 mps 736 mmHg 93%
    06:00 +14°C° 5.2 mm 5 mps 736 mmHg 93%
    07:00 +14°C° 0.5 mm 5 mps 736 mmHg 92%
    08:00 +14°C° 0.5 mm 5 mps 736 mmHg 91%
    09:00 +14°C° 0.5 mm 5 mps 737 mmHg 90%
    10:00 +15°C° 0.4 mm 5 mps 737 mmHg 85%
    11:00 +16°C° 0.4 mm 5 mps 738 mmHg 80%
    12:00 +17°C° 0.4 mm 5 mps 738 mmHg 75%
    13:00 +19°C° 0.3 mm 5 mps 738 mmHg 72%
    14:00 +19°C° 0.3 mm 6 mps 738 mmHg 69%
    15:00 +20°C° 0.3 mm 6 mps 738 mmHg 65%
    16:00 +19°C° 0.6 mm 6 mps 739 mmHg 68%
    17:00 +19°C° 0.6 mm 6 mps 739 mmHg 71%
    18:00 +17°C° 0.6 mm 6 mps 739 mmHg 74%
    19:00 +16°C° 0.2 mm 5 mps 739 mmHg 78%
    20:00 +14°C° 0.2 mm 4 mps 739 mmHg 82%
    21:00 +13°C° 0.2 mm 4 mps 739 mmHg 85%
    22:00 +13°C° 0 mm 4 mps 740 mmHg 86%
    23:00 +12°C° 0 mm 4 mps 740 mmHg 87%

    31 May, Sunday

    Time Temperature Precipitation Wind Pressure Humidity
    00:00 +12°C° 0 mm 5 mps 740 mmHg 88%
    01:00 +12°C° 0 mm 4 mps 740 mmHg 89%
    02:00 +11°C° 0 mm 4 mps 740 mmHg 89%
    03:00 +11°C° 0 mm 4 mps 740 mmHg 90%
    04:00 +11°C° 0 mm 4 mps 740 mmHg 89%
    05:00 +11°C° 0 mm 4 mps 741 mmHg 87%
    06:00 +12°C° 0 mm 4 mps 741 mmHg 86%
    07:00 +13°C° 0 mm 4 mps 741 mmHg 82%
    08:00 +15°C° 0 mm 4 mps 741 mmHg 77%
    09:00 +17°C° 0 mm 5 mps 741 mmHg 72%
    10:00 +17°C° 0.6 mm 6 mps 741 mmHg 70%
    11:00 +19°C° 0.6 mm 6 mps 741 mmHg 67%
    12:00 +20°C° 0.6 mm 7 mps 741 mmHg 64%
    13:00 +20°C° 0.8 mm 7 mps 741 mmHg 64%
    14:00 +21°C° 0.8 mm 7 mps 741 mmHg 63%
    15:00 +21°C° 0.8 mm 7 mps 740 mmHg 62%
    16:00 +20°C° 0.4 mm 7 mps 740 mmHg 65%
    17:00 +20°C° 0.4 mm 6 mps 740 mmHg 68%
    18:00 +19°C° 0.4 mm 5 mps 740 mmHg 71%
    19:00 +17°C° 0.2 mm 5 mps 740 mmHg 75%
    20:00 +16°C° 0.2 mm 5 mps 740 mmHg 79%
    21:00 +14°C° 0.2 mm 4 mps 740 mmHg 83%
    22:00 +14°C° 0 mm 4 mps 740 mmHg 85%
    23:00 +14°C° 0 mm 4 mps 739 mmHg 86%

    1 June, Monday

    Time Temperature Precipitation Wind Pressure Humidity
    00:00 +13°C° 0 mm 4 mps 739 mmHg 88%
    01:00 +13°C° 0 mm 3 mps 739 mmHg 88%
    02:00 +13°C° 0 mm 3 mps 739 mmHg 89%
    03:00 +13°C° 0 mm 3 mps 739 mmHg 89%
    04:00 +14°C° 0 mm 2 mps 739 mmHg 88%
    05:00 +14°C° 0 mm 2 mps 739 mmHg 86%
    06:00 +14°C° 0 mm 2 mps 739 mmHg 85%
    07:00 +16°C° 0 mm 2 mps 739 mmHg 78%
    08:00 +18°C° 0 mm 1 mps 739 mmHg 71%
    09:00 +20°C° 0 mm 1 mps 739 mmHg 64%
    10:00 +20°C° 0.1 mm 2 mps 739 mmHg 60%
    11:00 +21°C° 0.1 mm 2 mps 739 mmHg 56%
    12:00 +23°C° 0.1 mm 2 mps 739 mmHg 51%
    13:00 +23°C° 0.8 mm 2 mps 739 mmHg 54%
    14:00 +22°C° 0.8 mm 3 mps 739 mmHg 57%
    15:00 +22°C° 0.8 mm 3 mps 739 mmHg 60%
    16:00 +21°C° 1.4 mm 3 mps 739 mmHg 64%
    17:00 +21°C° 1.4 mm 3 mps 739 mmHg 68%
    18:00 +20°C° 1.4 mm 3 mps 738 mmHg 72%
    19:00 +19°C° 0.7 mm 3 mps 738 mmHg 77%
    20:00 +17°C° 0.7 mm 3 mps 738 mmHg 81%
    21:00 +16°C° 0.7 mm 3 mps 738 mmHg 85%
    22:00 +14°C° 0.8 mm 3 mps 738 mmHg 88%
    23:00 +14°C° 0.8 mm 3 mps 738 mmHg 90%

    2 June, Tuesday

    Time Temperature Precipitation Wind Pressure Humidity
    00:00 +13°C° 0.8 mm 3 mps 738 mmHg 92%
    01:00 +13°C° 0.5 mm 3 mps 738 mmHg 92%
    02:00 +13°C° 0.5 mm 3 mps 738 mmHg 91%
    03:00 +13°C° 0.5 mm 3 mps 738 mmHg 91%
    04:00 +13°C° 0.7 mm 3 mps 738 mmHg 92%
    05:00 +13°C° 0.7 mm 3 mps 738 mmHg 93%
    06:00 +13°C° 0.7 mm 3 mps 738 mmHg 93%
    07:00 +13°C° 1.5 mm 3 mps 738 mmHg 93%
    08:00 +13°C° 1.5 mm 3 mps 738 mmHg 92%
    09:00 +13°C° 1.5 mm 3 mps 738 mmHg 91%
    10:00 +14°C° 0.2 mm 4 mps 738 mmHg 90%
    11:00 +14°C° 0.2 mm 4 mps 739 mmHg 88%
    12:00 +14°C° 0.2 mm 5 mps 739 mmHg 86%
    13:00 +14°C° 0.1 mm 5 mps 739 mmHg 85%
    14:00 +14°C° 0.1 mm 5 mps 739 mmHg 83%
    15:00 +14°C° 0.1 mm 5 mps 739 mmHg 82%
    16:00 +14°C° 0.1 mm 5 mps 739 mmHg 81%
    17:00 +14°C° 0.1 mm 4 mps 739 mmHg 81%
    18:00 +14°C° 0.1 mm 4 mps 739 mmHg 80%
    19:00 +13°C° 0.4 mm 4 mps 739 mmHg 83%
    20:00 +13°C° 0.4 mm 4 mps 739 mmHg 85%
    21:00 +12°C° 0.4 mm 4 mps 740 mmHg 88%
    22:00 +12°C° 0.2 mm 4 mps 740 mmHg 88%
    23:00 +12°C° 0.2 mm 4 mps 740 mmHg 88%
    Show more